sat.trackr.live / text

‹ back to catalog

STARLINK-31898

NORAD 59905 · 2024-100W

PAYLOAD ACTIVE UNKNOWN

§ Identity

Operator
Country
US
Launch date
2024-05-28
Launch site
AFETR
Launch vehicle
Mass (kg)
RCS (m²)

Purposes: comms

External: N2YO · Heavens-Above · Gunter

§ Orbital elements

Epoch: 2026-05-25T02:33:53.998272Z

Period
94.27 min
Inclination
43.0025°
Eccentricity
0.0000829
Mean motion
15.27590344 rev/d
Perigee alt
482.4 km
Apogee alt
483.6 km
Semi-major
6,861.2 km
B*
2.2846e-5
RAAN
50.3973°
Arg perigee
267.8751°
Mean anomaly
92.2005°
Rev number
11,287

§ Raw data

STARLINK-318981 59905U 24100W   26145.10687498  .00000367  00000+0  22846-4 0  99972 59905  43.0025  50.3973 0000829 267.8751  92.2005 15.27590344112873

JSON: /api/v1/satellites/59905 · /tle

For live sub-satellite position, see the globe view (requires WebGL).

§ Visibility from observer

Set your observer location to see the next 7 days of passes ≥ 10°. The values pass through the URL so the page stays shareable.

No JS? Fill the form by hand. The geolocation button needs JavaScript.